International Skating Union - Official Site

ISU Junior World Cup Speed Skating Innsbruck
Januari 27-28, 2018

Draw | Lap Times | Index | World Cup

Referee: Ekaterina  PILSHCHIKOVA  (RUS)
Starter: Giovanni  Talamini  (ITA)
StartTime: EndTime: Air Temp: Ice Temp: Humidity:
12:40 13:16 4℃ -5.7℃ 28%
Result 3000m Ladies
Rankings as of Jan 28 2018 4:45PM
Rank: No.: Name: Nation: Time: Behind: Points:
1 247 Karolina  Bosiek POL POL 4:18.47200m - 20.10 - (20.1)
600m - 51.46 - (31.3)
1000m - 1:23.32 - (31.8)
1400m - 1:56.63 - (33.3)
1800m - 2:30.71 - (34.0)
2200m - 3:06.30 - (35.5)
2600m - 3:42.29 - (35.9)
3000m - 4:18.47 - (36.1)
100
2 239 Joy  Beune NED NED 4:20.87200m - 20.56 - (20.5)
600m - 53.43 - (32.8)
1000m - 1:26.76 - (33.3)
1400m - 2:00.79 - (34.0)
1800m - 2:35.35 - (34.5)
2200m - 3:10.22 - (34.8)
2600m - 3:45.50 - (35.2)
3000m - 4:20.87 - (35.3)
2.40 80
3 246 Ragne  Wiklund NOR NOR 4:27.90200m - 20.92 - (20.9)
600m - 54.12 - (33.1)
1000m - 1:28.54 - (34.4)
1400m - 2:03.12 - (34.5)
1800m - 2:38.26 - (35.1)
2200m - 3:13.85 - (35.5)
2600m - 3:50.28 - (36.4)
3000m - 4:27.90 - (37.6)
9.43 70
4 264 Karina  Akhmetova RUS RUS 4:33.20200m - 21.10 - (21.1)
600m - 55.52 - (34.4)
1000m - 1:30.76 - (35.2)
1400m - 2:05.49 - (34.7)
1800m - 2:41.50 - (36.0)
2200m - 3:18.36 - (36.8)
2600m - 3:55.24 - (36.8)
3000m - 4:33.20 - (37.9)
14.73 60
5 201 Viola  Feichtner AUT AUT 4:33.82200m - 21.44 - (21.4)
600m - 55.73 - (34.2)
1000m - 1:30.81 - (35.0)
1400m - 2:06.40 - (35.5)
1800m - 2:42.51 - (36.1)
2200m - 3:19.13 - (36.6)
2600m - 3:56.28 - (37.1)
3000m - 4:33.82 - (37.5)
15.35 50
6 266 Ekaterina  Kosheleva RUS RUS 4:34.65200m - 21.20 - (21.1)
600m - 55.10 - (33.9)
1000m - 1:30.15 - (35.0)
1400m - 2:05.40 - (35.2)
1800m - 2:42.29 - (36.8)
2200m - 3:19.86 - (37.5)
2600m - 3:58.10 - (38.2)
3000m - 4:34.65 - (36.5)
16.18 44
7 249 Karolina  Gasecka POL POL 4:34.78200m - 20.82 - (20.8)
600m - 54.56 - (33.7)
1000m - 1:29.84 - (35.2)
1400m - 2:06.23 - (36.3)
1800m - 2:43.99 - (37.7)
2200m - 3:21.90 - (37.9)
2600m - 3:59.43 - (37.5)
3000m - 4:34.78 - (35.3)
16.31 40
8 232 Laura  Peveri ITA ITA 4:35.58200m - 21.57 - (21.5)
600m - 58.09 - (36.5)
1000m - 1:34.13 - (36.0)
1400m - 2:10.12 - (35.9)
1800m - 2:46.28 - (36.1)
2200m - 3:22.80 - (36.5)
2600m - 3:59.30 - (36.5)
3000m - 4:35.57 - (36.2)
17.11 36
9 209 Xiangyu  Chen CHN CHN 4:37.57200m - 22.26 - (22.2)
600m - 56.42 - (34.1)
1000m - 1:31.14 - (34.7)
1400m - 2:06.47 - (35.3)
1800m - 2:42.65 - (36.1)
2200m - 3:19.85 - (37.1)
2600m - 3:57.95 - (38.0)
3000m - 4:37.56 - (39.6)
19.10 32
10 202 Viktoria  Schinnerl AUT AUT 4:37.85200m - 22.45 - (22.4)
600m - 58.72 - (36.2)
1000m - 1:35.01 - (36.2)
1400m - 2:11.42 - (36.4)
1800m - 2:47.48 - (36.0)
2200m - 3:23.55 - (36.0)
2600m - 4:00.27 - (36.7)
3000m - 4:37.85 - (37.5)
19.38 28
11 241 Sterre  Jonkers NED NED 4:38.01200m - 21.87 - (21.8)
600m - 56.23 - (34.3)
1000m - 1:31.11 - (34.8)
1400m - 2:06.46 - (35.3)
1800m - 2:42.63 - (36.1)
2200m - 3:20.39 - (37.7)
2600m - 3:58.59 - (38.2)
3000m - 4:38.01 - (39.4)
19.54 24
12 231 Federica  Maffei ITA ITA 4:38.46200m - 21.42 - (21.4)
600m - 55.58 - (34.1)
1000m - 1:31.23 - (35.6)
1400m - 2:07.12 - (35.8)
1800m - 2:43.99 - (36.8)
2200m - 3:21.31 - (37.3)
2600m - 3:59.57 - (38.2)
3000m - 4:38.46 - (38.8)
19.99 20
13 214 Xueqing  Zhao CHN CHN 4:44.64200m - 22.95 - (22.9)
600m - 59.05 - (36.0)
1000m - 1:35.00 - (35.9)
1400m - 2:11.45 - (36.4)
1800m - 2:48.28 - (36.8)
2200m - 3:26.03 - (37.7)
2600m - 4:04.89 - (38.8)
3000m - 4:44.65 - (39.7)
26.18 18
14 203 Anna  Kovaleva BLR BLR 4:48.71200m - 22.10 - (22.1)
600m - 58.21 - (36.1)
1000m - 1:35.41 - (37.1)
1400m - 2:13.04 - (37.6)
1800m - 2:51.51 - (38.4)
2200m - 3:30.30 - (38.7)
2600m - 4:09.30 - (39.0)
3000m - 4:48.71 - (39.3)
30.24 16
15 251 Olga  Kaczmarek POL POL 4:49.00200m - 21.84 - (21.8)
600m - 57.66 - (35.8)
1000m - 1:34.16 - (36.5)
1400m - 2:11.37 - (37.2)
1800m - 2:50.05 - (38.6)
2200m - 3:28.97 - (38.9)
2600m - 4:09.30 - (40.3)
3000m - 4:49.00 - (39.7)
30.53 14
16 210 Weiping  Gan CHN CHN 4:50.22200m - 22.77 - (22.7)
600m - 58.41 - (35.6)
1000m - 1:34.58 - (36.1)
1400m - 2:12.35 - (37.7)
1800m - 2:51.02 - (38.6)
2200m - 3:30.41 - (39.3)
2600m - 4:10.55 - (40.1)
3000m - 4:50.22 - (39.6)
31.75 12
17 230 Tara  Donoghue IRL IRL 4:50.59200m - 22.20 - (22.1)
600m - 59.41 - (37.2)
1000m - 1:37.16 - (37.7)
1400m - 2:15.56 - (38.4)
1800m - 2:53.85 - (38.2)
2200m - 3:32.27 - (38.4)
2600m - 4:11.24 - (38.9)
3000m - 4:50.59 - (39.3)
32.12 10
18 235 Xeniya  Yakovleva KAZ KAZ 4:55.14200m - 22.72 - (22.7)
600m - 1:00.12 - (37.4)
1000m - 1:38.44 - (38.3)
1400m - 2:16.84 - (38.4)
1800m - 2:56.02 - (39.1)
2200m - 3:35.44 - (39.4)
2600m - 4:14.69 - (39.2)
3000m - 4:55.14 - (40.4)
36.67 8
19 224 Tuuli  Vaher EST EST 5:02.02200m - 22.74 - (22.7)
600m - 1:00.67 - (37.9)
1000m - 1:40.42 - (39.7)
1400m - 2:20.34 - (39.9)
1800m - 2:59.69 - (39.3)
2200m - 3:40.08 - (40.3)
2600m - 4:21.40 - (41.3)
3000m - 5:02.03 - (40.6)
43.56 6
20 260 Andreea  Nastasache ROU ROU 5:02.62200m - 22.02 - (22.0)
600m - 59.31 - (37.2)
1000m - 1:38.50 - (39.1)
1400m - 2:18.33 - (39.8)
1800m - 2:59.09 - (40.7)
2200m - 3:39.92 - (40.8)
2600m - 4:21.59 - (41.6)
3000m - 5:02.62 - (41.0)
44.15 5
21 229 Lilla  Malinovszky HUN HUN 5:03.15200m - 21.43 - (21.4)
600m - 57.71 - (36.2)
1000m - 1:36.06 - (38.3)
1400m - 2:15.67 - (39.6)
1800m - 2:56.30 - (40.6)
2200m - 3:38.06 - (41.7)
2600m - 4:21.23 - (43.1)
3000m - 5:03.15 - (41.8)
44.68 4
22 259 Roxana  Manolache ROU ROU 5:03.58200m - 22.82 - (22.8)
600m - 59.34 - (36.5)
1000m - 1:37.86 - (38.5)
1400m - 2:17.63 - (39.7)
1800m - 2:59.24 - (41.6)
2200m - 3:41.64 - (42.3)
2600m - 4:23.29 - (41.6)
3000m - 5:03.58 - (40.2)
45.11 3
23 218 Sandra  Šimková CZE CZE 5:06.32200m - 22.73 - (22.7)
600m - 59.89 - (37.1)
1000m - 1:38.59 - (38.7)
1400m - 2:18.34 - (39.7)
1800m - 2:59.46 - (41.1)
2200m - 3:41.08 - (41.6)
2600m - 4:23.56 - (42.4)
3000m - 5:06.32 - (42.7)
47.85 2
24 255 Nicole  Constantinescu ROU ROU 5:19.70200m - 24.08 - (24.0)
600m - 1:02.80 - (38.7)
1000m - 1:43.37 - (40.5)
1400m - 2:24.71 - (41.3)
1800m - 3:07.47 - (42.7)
2200m - 3:51.21 - (43.7)
2600m - 4:35.45 - (44.2)
3000m - 5:19.70 - (44.2)
61.23 1